TimeEDT,TemperatureF,Dew PointF,Humidity,Sea Level PressureIn,VisibilityMPH,Wind Direction,Wind SpeedMPH,Gust SpeedMPH,PrecipitationIn,Events,Conditions,WindDirDegrees,DateUTC
12:15 AM,55.4,55.4,100,30.17,7.0,North,5.8,-,N/A,Rain,Light Rain,360,2013-04-17 04:15:00
12:35 AM,55.4,55.4,100,30.15,7.0,NNE,10.4,-,N/A,,Overcast,20,2013-04-17 04:35:00
12:55 AM,55.4,55.4,100,30.17,7.0,North,3.5,-,N/A,,Overcast,10,2013-04-17 04:55:00
1:15 AM,55.4,55.4,100,30.17,5.0,NNE,8.1,-,N/A,,Overcast,30,2013-04-17 05:15:00
1:35 AM,55.4,55.4,100,30.19,4.0,NNE,6.9,-,N/A,,Overcast,30,2013-04-17 05:35:00
1:55 AM,55.4,55.4,100,30.19,4.0,ENE,6.9,-,N/A,,Overcast,60,2013-04-17 05:55:00
2:15 AM,55.4,55.4,100,30.20,4.0,North,5.8,-,N/A,,Overcast,10,2013-04-17 06:15:00
2:35 AM,55.4,55.4,100,30.22,7.0,NNE,11.5,-,N/A,Rain,Rain,20,2013-04-17 06:35:00
2:55 AM,55.4,55.4,100,30.19,4.0,East,5.8,-,N/A,Rain,Heavy Rain,100,2013-04-17 06:55:00
3:15 AM,55.4,55.4,100,30.12,5.0,SSE,15.0,19.6,N/A,Rain,Heavy Rain,160,2013-04-17 07:15:00
3:35 AM,55.6,55.6,100,30.16,7.0,NNE,9.2,17.3,N/A,Rain,Rain,30,2013-04-17 07:35:00
3:55 AM,55.4,55.4,100,30.17,3.0,SSE,3.5,-,N/A,Rain,Heavy Rain,150,2013-04-17 07:55:00
4:15 AM,55.4,55.4,100,30.19,7.0,NNW,6.9,-,N/A,Rain,Light Rain,340,2013-04-17 08:15:00
4:35 AM,55.4,55.4,100,30.18,10.0,NNE,4.6,-,N/A,Rain,Light Rain,30,2013-04-17 08:35:00
4:55 AM,55.4,55.4,100,30.19,10.0,North,3.5,-,N/A,,Overcast,360,2013-04-17 08:55:00
5:15 AM,55.4,55.4,100,30.19,10.0,North,4.6,-,N/A,Rain,Light Rain,10,2013-04-17 09:15:00
5:35 AM,55.4,55.4,100,30.19,10.0,NNE,4.6,-,N/A,,Overcast,20,2013-04-17 09:35:00
5:55 AM,55.4,55.4,100,30.19,10.0,NNE,8.1,-,N/A,,Overcast,30,2013-04-17 09:55:00
6:15 AM,55.4,55.4,100,30.20,7.0,North,9.2,-,N/A,,Overcast,360,2013-04-17 10:15:00
6:35 AM,52.7,52.7,100,30.22,7.0,North,8.1,-,N/A,Rain,Rain,350,2013-04-17 10:35:00
6:55 AM,52.7,52.7,100,30.20,10.0,NE,9.2,-,N/A,Rain,Light Rain,40,2013-04-17 10:55:00
7:15 AM,52.7,52.7,100,30.22,10.0,NNE,4.6,-,N/A,,Overcast,30,2013-04-17 11:15:00
7:35 AM,52.7,52.7,100,30.21,10.0,NNE,6.9,-,N/A,,Overcast,30,2013-04-17 11:35:00
7:55 AM,52.7,52.7,100,30.22,10.0,NE,8.1,-,N/A,,Overcast,40,2013-04-17 11:55:00
8:15 AM,52.7,52.7,100,30.23,7.0,NE,6.9,-,N/A,,Overcast,40,2013-04-17 12:15:00
8:35 AM,52.7,52.7,100,30.23,7.0,NE,5.8,-,N/A,,Overcast,50,2013-04-17 12:35:00
8:55 AM,52.7,52.7,100,30.22,7.0,NE,6.9,-,N/A,,Overcast,50,2013-04-17 12:55:00
9:15 AM,55.0,55.0,100,30.22,7.0,NE,5.8,-,N/A,,Overcast,50,2013-04-17 13:15:00
9:35 AM,55.4,55.4,100,30.23,7.0,ENE,4.6,-,N/A,,Overcast,60,2013-04-17 13:35:00
10:15 AM,57.7,57.4,99,30.22,10.0,NE,8.1,-,N/A,,Overcast,50,2013-04-17 14:15:00
10:35 AM,57.7,57.2,98,30.23,10.0,NE,8.1,-,N/A,,Overcast,50,2013-04-17 14:35:00
10:55 AM,57.7,57.4,99,30.21,10.0,ENE,6.9,-,N/A,,Overcast,60,2013-04-17 14:55:00
11:15 AM,59.9,58.5,95,30.21,10.0,ENE,9.2,-,N/A,,Mostly Cloudy,70,2013-04-17 15:15:00
11:35 AM,60.6,58.8,94,30.20,10.0,ESE,6.9,-,N/A,,Mostly Cloudy,110,2013-04-17 15:35:00
11:55 AM,63.0,60.3,91,30.20,10.0,East,6.9,-,N/A,,Overcast,100,2013-04-17 15:55:00
12:15 PM,66.9,63.7,89,30.19,10.0,SE,5.8,-,N/A,,Mostly Cloudy,140,2013-04-17 16:15:00
12:35 PM,67.6,64.4,89,30.17,10.0,SSE,9.2,-,N/A,,Mostly Cloudy,150,2013-04-17 16:35:00
12:55 PM,67.6,63.7,87,30.16,10.0,South,13.8,17.3,N/A,,Mostly Cloudy,170,2013-04-17 16:55:00
1:15 PM,67.6,63.9,88,30.16,10.0,SSE,5.8,-,N/A,,Overcast,160,2013-04-17 17:15:00
1:35 PM,67.6,64.0,88,30.16,10.0,SE,3.5,-,N/A,,Overcast,130,2013-04-17 17:35:00
1:55 PM,72.7,66.9,82,30.15,10.0,South,11.5,-,N/A,,Overcast,190,2013-04-17 17:55:00
2:15 PM,72.7,66.2,80,30.14,10.0,South,11.5,-,N/A,,Overcast,190,2013-04-17 18:15:00
2:35 PM,72.7,64.9,77,30.13,10.0,South,11.5,-,N/A,,Mostly Cloudy,170,2013-04-17 18:35:00
2:55 PM,74.7,67.1,77,30.12,10.0,SSE,8.1,-,N/A,,Mostly Cloudy,160,2013-04-17 18:55:00
3:15 PM,74.7,66.4,75,30.11,10.0,SSW,9.2,-,N/A,,Mostly Cloudy,200,2013-04-17 19:15:00
3:35 PM,72.7,64.9,77,30.10,10.0,SSW,11.5,-,N/A,,Overcast,200,2013-04-17 19:35:00
3:55 PM,72.7,65.3,78,30.09,10.0,South,8.1,-,N/A,,Overcast,170,2013-04-17 19:55:00
4:35 PM,75.2,64.9,70,30.07,10.0,South,10.4,-,N/A,,Mostly Cloudy,190,2013-04-17 20:35:00
4:55 PM,75.2,64.9,70,30.06,10.0,South,8.1,-,N/A,,Scattered Clouds,180,2013-04-17 20:55:00
5:15 PM,77.9,66.6,68,30.05,10.0,South,9.2,-,N/A,,Clear,190,2013-04-17 21:15:00
5:35 PM,77.9,66.6,68,30.04,10.0,SSE,9.2,-,N/A,,Clear,160,2013-04-17 21:35:00
5:55 PM,77.9,66.4,68,30.03,10.0,South,5.8,-,N/A,,Clear,170,2013-04-17 21:55:00
6:15 PM,77.9,65.7,66,30.03,10.0,SSW,10.4,-,N/A,,Clear,200,2013-04-17 22:15:00
6:35 PM,76.5,64.4,66,30.03,10.0,South,9.2,-,N/A,,Clear,190,2013-04-17 22:35:00
6:55 PM,75.2,64.6,69,30.02,10.0,South,9.2,-,N/A,,Clear,190,2013-04-17 22:55:00
7:15 PM,75.2,65.1,71,30.03,10.0,South,9.2,-,N/A,,Clear,190,2013-04-17 23:15:00
7:35 PM,75.2,66.2,73,30.03,10.0,South,4.6,-,N/A,,Clear,170,2013-04-17 23:35:00
7:55 PM,74.7,65.7,73,30.02,10.0,SSE,4.6,-,N/A,,Clear,150,2013-04-17 23:55:00
8:15 PM,73.8,64.8,73,30.01,10.0,SSE,4.6,-,N/A,,Clear,150,2013-04-18 00:15:00
8:35 PM,72.9,64.4,75,30.00,10.0,SSE,4.6,-,N/A,,Clear,150,2013-04-18 00:35:00
8:55 PM,72.7,64.6,76,30.00,10.0,SSE,4.6,-,N/A,,Scattered Clouds,150,2013-04-18 00:55:00
9:15 PM,72.7,65.5,78,29.99,10.0,SSE,5.8,-,N/A,,Scattered Clouds,150,2013-04-18 01:15:00
9:35 PM,72.7,65.8,79,29.98,10.0,South,4.6,-,N/A,,Clear,170,2013-04-18 01:35:00
9:55 PM,72.7,65.5,78,29.98,10.0,South,5.8,-,N/A,,Clear,170,2013-04-18 01:55:00
10:15 PM,72.7,65.8,79,29.99,10.0,South,8.1,-,N/A,,Clear,180,2013-04-18 02:15:00
10:35 PM,72.7,66.0,80,30.00,10.0,South,9.2,-,N/A,,Clear,190,2013-04-18 02:35:00
10:55 PM,72.7,65.5,78,30.00,10.0,South,9.2,-,N/A,,Scattered Clouds,190,2013-04-18 02:55:00
11:15 PM,70.3,63.5,79,29.99,10.0,South,6.9,-,N/A,,Scattered Clouds,170,2013-04-18 03:15:00
11:35 PM,70.2,63.5,79,29.99,10.0,South,8.1,-,N/A,,Scattered Clouds,180,2013-04-18 03:35:00
11:55 PM,69.3,63.1,81,30.00,10.0,SSW,4.6,-,N/A,,Mostly Cloudy,200,2013-04-18 03:55:00